This is the latest recevied weather packets stored in our database for station/object K7ZQU-7. If no packets are shown the sender has not sent any weather packets the latest 10 day(s).
| Time | Temp. | Humidity | Pressure | Rain* | Wind** | Luminosity | Snow |
|---|---|---|---|---|---|---|---|
| 1777547328 | 2.78° C | 72% | 1018.3 hPa | 0 mm | 0.45 m/s, 163° | - | - |
| 1777546727 | 2.78° C | 73% | 1018.4 hPa | 0 mm | 0.89 m/s, 229° | - | - |
| 1777546428 | 2.78° C | 72% | 1018.4 hPa | 0 mm | 0.89 m/s, 190° | - | - |
| 1777546129 | 2.78° C | 72% | 1018.4 hPa | 0 mm | 0.45 m/s, 243° | - | - |
| 1777545830 | 3.33° C | 71% | 1018.5 hPa | 0 mm | 0 m/s | - | - |
| 1777545531 | 3.33° C | 71% | 1018.5 hPa | 0 mm | 0 m/s | - | - |
| 1777545229 | 3.33° C | 70% | 1018.5 hPa | 0 mm | 0.89 m/s, 197° | - | - |
| 1777544929 | 3.89° C | 70% | 1018.4 hPa | 0 mm | 0 m/s | - | - |
| 1777544331 | 4.44° C | 69% | 1018.4 hPa | 0 mm | 1.79 m/s, 203° | - | - |
| 1777543730 | 4.44° C | 69% | 1018.4 hPa | 0 mm | 1.34 m/s, 217° | - | - |
| 1777543431 | 3.89° C | 70% | 1018.4 hPa | 0 mm | 0 m/s | - | - |
| 1777543131 | 3.89° C | 70% | 1018.4 hPa | 0 mm | 0 m/s | - | - |
| 1777542832 | 3.33° C | 72% | 1018.5 hPa | 0 mm | 1.34 m/s, 231° | - | - |
| 1777542533 | 3.33° C | 72% | 1018.5 hPa | 0 mm | 0.45 m/s, 181° | - | - |
| 1777542231 | 3.33° C | 73% | 1018.5 hPa | 0 mm | 1.79 m/s, 198° | - | - |
| 1777541932 | 3.33° C | 71% | 1018.6 hPa | 0 mm | 0 m/s | - | - |
| 1777541633 | 3.33° C | 71% | 1018.6 hPa | 0 mm | 0 m/s | - | - |
| 1777541333 | 3.33° C | 70% | 1018.8 hPa | 0 mm | 0.45 m/s, 211° | - | - |
| 1777541034 | 3.33° C | 69% | 1018.8 hPa | 0 mm | 0.45 m/s, 236° | - | - |
| 1777540732 | 3.33° C | 69% | 1018.8 hPa | 0 mm | 0.45 m/s, 179° | - | - |
| 1777540433 | 3.33° C | 70% | 1018.9 hPa | 0 mm | 0 m/s | - | - |
| 1777540134 | 3.33° C | 70% | 1018.9 hPa | 0 mm | 0 m/s | - | - |
| 1777539835 | 3.33° C | 70% | 1018.9 hPa | 0 mm | 0 m/s | - | - |
| 1777539549 | 3.33° C | 70% | 1018.9 hPa | 0 mm | 0.89 m/s, 200° | - | - |
| 1777539234 | 3.33° C | 70% | 1018.9 hPa | 0 mm | 0 m/s | - | - |
* Rain latest hour (hover to see other rain measurements)
** Current wind speed in m/s (hover to see current wind gust speed)